DW1384 Weather Reports


time (UTC)temp
C
wind
direction
speed
KPH
gust
KPH
rain 1hr
cm
rain 24hr
cm
rain mn
cm
humidity
%
barometer
mb
20260502185721 20 150 0.0 0.0 0.00 0.00 0.00 54 1015.1
20260502184955 21 271 0.0 0.0 0.00 0.00 0.00 52 1015.1
20260502184455 21 143 0.0 0.0 0.00 0.00 0.00 52 1015.0
20260502183956 21 141 0.0 0.0 0.00 0.00 0.00 51 1015.0
20260502183456 21 141 0.0 0.0 0.00 0.00 0.00 51 1015.0
20260502182955 21 141 0.0 0.0 0.00 0.00 0.00 50 1015.1
20260502182943 21 141 0.0 0.0 0.00 0.00 0.00 50 1015.1
20260502181955 21 141 0.0 0.0 0.00 0.00 0.00 50 1015.0
20260502181455 21 141 0.0 0.0 0.00 0.00 0.00 49 1014.9
20260502180955 22 141 0.0 0.0 0.00 0.00 0.00 49 1014.7
20260502180451 22 141 0.0 0.0 0.00 0.00 0.00 48 1014.7
20260502170449 23 166 0.0 0.0 0.00 0.00 0.00 44 1014.8
20260502163950 24 180 0.0 0.0 0.00 0.00 0.00 43 1015.3
20260502163447 24 193 0.0 0.0 0.00 0.00 0.00 41 1015.2
20260502162940 24 166 0.0 0.0 0.00 0.00 0.00 42 1015.2
20260502162434 24 175 0.0 0.0 0.00 0.00 0.00 42 1015.2
20260502161930 25 138 0.0 0.0 0.00 0.00 0.00 42 1015.2
20260502161423 24 120 0.0 0.0 0.00 0.00 0.00 41 1015.4
20260502160916 24 179 0.0 0.0 0.00 0.00 0.00 42 1015.4
20260502160410 24 158 0.0 0.0 0.00 0.00 0.00 42 1015.4
20260502152322 24 157 0.0 0.0 0.00 0.00 0.00 43 1015.9
20260502151818 24 139 0.0 0.0 0.00 0.00 0.00 43 1016.0
20260502151310 24 117 0.0 0.0 0.00 0.00 0.00 42 1016.0
20260502150804 24 190 0.0 0.0 0.00 0.00 0.00 42 1016.2
20260502150259 24 141 0.0 0.0 0.00 0.00 0.00 42 1016.3
20260502130713 25 178 0.0 0.0 0.00 0.00 0.00 41 1017.3
20260502130206 24 177 0.0 0.0 0.00 0.00 0.00 41 1017.4
20260502123637 25 206 0.0 0.0 0.00 0.00 0.00 41 1017.8
20260502123348 25 285 0.0 0.0 0.00 0.00 0.00 40 1017.8
20260502122625 25 255 0.0 0.0 0.00 0.00 0.00 41 1017.9
20260502122119 24 247 0.0 0.0 0.00 0.00 0.00 41 1017.8
20260502121614 24 313 0.0 0.0 0.00 0.00 0.00 41 1017.9
20260502121106 24 197 0.0 0.0 0.00 0.00 0.00 42 1017.9
20260502120600 24 154 0.0 0.0 0.00 0.00 0.00 43 1017.9
20260502120108 24 190 0.0 0.0 0.00 0.00 0.00 41 1018.0
20260502115548 24 252 0.0 0.0 0.00 0.00 0.00 41 1018.2
20260502115043 24 278 0.0 0.0 0.00 0.00 0.00 41 1018.2
20260502114800 24 161 0.0 0.0 0.00 0.00 0.00 42 1018.2
20260502114254 23 149 0.0 0.0 0.00 0.00 0.00 43 1018.2
20260502113524 23 186 0.0 0.0 0.00 0.00 0.00 42 1018.4
20260502113019 23 184 0.0 0.0 0.00 0.00 0.00 42 1018.5
20260502112516 23 178 0.0 0.0 0.00 0.00 0.00 41 1018.6
20260502112007 23 154 0.0 0.0 0.00 0.00 0.00 41 1018.6
20260502111500 23 152 0.0 0.0 0.00 0.00 0.00 42 1018.6
20260502110954 23 174 0.0 0.0 0.00 0.00 0.00 42 1018.7
20260502110449 23 204 0.0 0.0 0.00 0.00 0.00 43 1018.8
20260502110207 23 168 0.0 0.0 0.00 0.00 0.00 42 1018.8
20260502105436 23 121 0.0 0.0 0.00 0.00 0.00 43 1018.9
20260502104930 23 177 0.0 0.0 0.00 0.00 0.00 43 1018.9
20260502104425 23 208 0.0 0.0 0.00 0.00 0.00 42 1019.0
20260502103918 23 211 0.0 0.0 0.00 0.00 0.00 43 1019.0
20260502103412 22 147 0.0 0.0 0.00 0.00 0.00 41 1019.0
20260502102907 22 188 0.0 0.0 0.00 0.00 0.00 41 1019.1
20260502102400 22 127 0.0 0.0 0.00 0.00 0.00 41 1019.1
20260502101855 22 166 0.0 0.0 0.00 0.00 0.00 41 1019.1
20260502101617 22 131 0.0 0.0 0.00 0.00 0.00 41 1019.2
20260502100852 22 149 0.0 0.0 0.00 0.00 0.00 42 1019.2
20260502100614 22 118 0.0 0.0 0.00 0.00 0.00 41 1019.4
20260502091349 21 186 0.0 0.0 0.00 0.00 0.00 44 1019.9
20260502090849 21 174 0.0 0.0 0.00 0.00 0.00 43 1019.9
20260502090348 21 166 0.0 0.0 0.00 0.00 0.00 43 1020.0
20260502070831 15 324 0.0 0.0 0.00 0.00 0.00 59 1020.8
20260502070554 16 343 0.0 0.0 0.00 0.00 0.00 62 1020.8
20260502065831 15 348 0.0 0.0 0.00 0.00 0.00 63 1020.7
20260502065343 15 348 0.0 0.0 0.00 0.00 0.00 64 1020.7
20260502064831 14 348 0.0 0.0 0.00 0.00 0.00 65 1020.8
20260502064331 14 0 0.0 0.0 0.00 0.00 0.00 67 1020.9
20260502064103 13 353 0.0 0.0 0.00 0.00 0.00 69 1020.9
20260502063331 13 26 0.0 0.0 0.00 0.00 0.00 72 1020.9
20260502062830 12 28 0.0 0.0 0.00 0.00 0.00 75 1021.0
20260502062548 11 28 0.0 0.0 0.00 0.00 0.00 76 1020.9
20260502062048 10 28 0.0 0.0 0.00 0.00 0.00 79 1020.9
20260502061324 10 28 0.0 0.0 0.00 0.00 0.00 80 1020.9
20260502060823 10 28 0.0 0.0 0.00 0.00 0.00 81 1020.8
20260502060322 9 28 0.0 0.0 0.00 0.00 0.00 81 1020.9
20260502055823 9 30 0.0 0.0 0.00 0.00 0.00 83 1020.9
20260502055322 8 29 0.0 0.0 0.00 0.00 0.00 84 1020.9
20260502054822 8 24 0.0 0.0 0.00 0.00 0.00 85 1020.9
20260502054323 8 24 0.0 0.0 0.00 0.00 0.00 86 1020.9
20260502053823 7 24 0.0 0.0 0.00 0.00 0.00 86 1020.9
20260502053322 6 24 0.0 0.0 0.00 0.00 0.00 86 1020.9
20260502052822 6 24 0.0 0.0 0.00 0.00 0.00 87 1020.9
20260502052323 6 24 0.0 0.0 0.00 0.00 0.00 86 1021.0
20260502051822 6 24 0.0 0.0 0.00 0.00 0.00 87 1021.0
20260502051323 5 24 0.0 0.0 0.00 0.00 0.00 87 1021.3
20260502050823 5 24 0.0 0.0 0.00 0.00 0.00 86 1021.1
20260502050323 5 24 0.0 0.0 0.00 0.00 0.00 87 1021.1
20260502045824 5 24 0.0 0.0 0.00 0.00 0.00 86 1021.3
20260502045322 4 24 0.0 0.0 0.00 0.00 0.00 86 1021.4
20260502044822 4 24 0.0 0.0 0.00 0.00 0.00 86 1021.4
20260502044546 4 24 0.0 0.0 0.00 0.00 0.00 86 1021.4
20260502043822 4 24 0.0 0.0 0.00 0.00 0.00 86 1021.4
20260502043546 4 24 0.0 0.0 0.00 0.00 0.00 86 1021.4
20260502043042 4 24 0.0 0.0 0.00 0.00 0.00 86 1021.4
20260502042324 4 24 0.0 0.0 0.00 0.00 0.00 86 1021.4
20260502041823 4 24 0.0 0.0 0.00 0.00 0.00 86 1021.1
20260502041804 4 24 0.0 0.0 0.00 0.00 0.00 86 1021.3
20260502041302 4 24 0.0 0.0 0.00 0.00 0.00 86 1021.3
20260502040318 4 24 0.0 0.0 0.00 0.00 0.00 85 1021.4
20260502035819 4 24 0.0 0.0 0.00 0.00 0.00 85 1021.4
20260502035543 4 24 0.0 0.0 0.00 0.00 0.00 85 1021.4
20260502034818 5 24 0.0 0.0 0.00 0.00 0.00 85 1021.3
20260502034319 4 24 0.0 0.0 0.00 0.00 0.00 85 1021.3
20260502033819 4 24 0.0 0.0 0.00 0.00 0.00 85 1021.4
20260502033318 4 24 0.0 0.0 0.00 0.00 0.00 85 1021.4
20260502032818 5 24 0.0 0.0 0.00 0.00 0.00 85 1021.4
20260502032332 5 24 0.0 0.0 0.00 0.00 0.00 85 1021.5
20260502032040 5 24 0.0 0.0 0.00 0.00 0.00 85 1021.5
20260502031532 5 24 0.0 0.0 0.00 0.00 0.00 85 1021.5
20260502030815 5 24 0.0 0.0 0.00 0.00 0.00 85 1021.5
20260502030316 5 24 0.0 0.0 0.00 0.00 0.00 85 1021.5
20260502025814 5 24 0.0 0.0 0.00 0.00 0.00 85 1021.5
20260502025315 5 29 0.0 0.0 0.00 0.00 0.00 85 1021.5
20260502024815 5 29 0.0 0.0 0.00 0.00 0.00 85 1021.6
20260502024316 5 29 0.0 0.0 0.00 0.00 0.00 85 1021.6
20260502023815 5 29 0.0 0.0 0.00 0.00 0.00 85 1021.6
20260502023534 5 29 0.0 0.0 0.00 0.00 0.00 85 1021.7
20260502022815 5 29 0.0 0.0 0.00 0.00 0.00 85 1021.8
20260502022316 5 29 0.0 0.0 0.00 0.00 0.00 85 1021.7
20260502021815 5 29 0.0 0.0 0.00 0.00 0.00 85 1021.8
20260502021316 5 30 0.0 0.0 0.00 0.00 0.00 84 1021.8
20260502021052 5 30 0.0 0.0 0.00 0.00 0.00 84 1021.9
20260502020753 5 30 0.0 0.0 0.00 0.00 0.00 84 1021.9
20260502020038 5 30 0.0 0.0 0.00 0.00 0.00 84 1021.9
20260502015314 5 30 0.0 0.0 0.00 0.00 0.00 84 1022.0
20260502014814 5 30 0.0 0.0 0.00 0.00 0.00 84 1022.0
20260502014314 5 37 0.0 0.0 0.00 0.00 0.00 84 1022.0
20260502014032 5 74 0.0 0.0 0.00 0.00 0.00 84 1022.0
20260502013310 6 74 0.0 0.0 0.00 0.00 0.00 84 1022.0
20260502012810 5 74 0.0 0.0 0.00 0.00 0.00 83 1022.1
20260502012311 5 74 0.0 0.0 0.00 0.00 0.00 83 1022.1
20260502011810 6 74 0.0 0.0 0.00 0.00 0.00 83 1022.2
20260502011310 6 74 0.0 0.0 0.00 0.00 0.00 83 1022.3
20260502010810 6 74 0.0 0.0 0.00 0.00 0.00 83 1022.2
20260502010751 6 122 0.0 0.0 0.00 0.00 0.00 83 1022.3
20260502005811 6 122 0.0 0.0 0.00 0.00 0.00 83 1022.4
20260502005310 6 122 0.0 0.0 0.00 0.00 0.00 83 1022.4
20260502004810 6 122 0.0 0.0 0.00 0.00 0.00 83 1022.5
20260502004310 6 122 0.0 0.0 0.00 0.00 0.00 83 1022.5
20260502003812 6 122 0.0 0.0 0.00 0.00 0.00 82 1022.6
20260502003310 6 122 0.0 0.0 0.00 0.00 0.00 82 1022.6
20260502003030 6 122 0.0 0.0 0.00 0.00 0.00 82 1022.6
20260502002307 6 122 0.0 0.0 0.00 0.00 0.00 82 1022.6
20260502001808 6 122 0.0 0.0 0.00 0.00 0.00 82 1022.7
20260502001308 6 122 0.0 0.0 0.00 0.00 0.00 81 1022.7
20260502000806 6 122 0.0 0.0 0.00 0.00 0.00 82 1022.7
20260502000306 6 122 0.0 0.0 0.00 0.00 0.00 81 1022.7
20260501235806 6 122 0.0 0.0 0.00 0.00 0.00 81 1022.7
20260501235526 6 122 0.0 0.0 0.00 0.00 0.00 81 1022.8
20260501235029 6 122 0.0 0.0 0.00 0.00 0.00 81 1022.8
20260501234307 7 122 0.0 0.0 0.00 0.00 0.00 80 1022.8
20260501233802 7 122 0.0 0.0 0.00 0.00 0.00 80 1022.9
20260501233304 7 122 0.0 0.0 0.00 0.00 0.00 80 1022.9
20260501232802 7 122 0.0 0.0 0.00 0.00 0.00 80 1022.9
20260501232305 7 122 0.0 0.0 0.00 0.00 0.00 80 1022.9
20260501231802 7 122 0.0 0.0 0.00 0.00 0.00 79 1022.9
20260501231527 7 122 0.0 0.0 0.00 0.00 0.00 79 1023.0
20260501230802 7 122 0.0 0.0 0.00 0.00 0.00 78 1023.0
20260501230524 8 122 0.0 0.0 0.00 0.00 0.00 78 1023.0
20260501225802 8 122 0.0 0.0 0.00 0.00 0.00 78 1023.0
20260501225256 8 122 0.0 0.0 0.00 0.00 0.00 78 1023.1
20260501224755 8 122 0.0 0.0 0.00 0.00 0.00 77 1023.1
20260501224254 8 122 0.0 0.0 0.00 0.00 0.00 77 1023.1
20260501224016 8 122 0.0 0.0 0.00 0.00 0.00 77 1023.0
20260501223255 8 114 0.0 0.0 0.00 0.00 0.00 77 1023.2
20260501223227 8 121 0.0 0.0 0.00 0.00 0.00 76 1023.1
20260501222250 8 115 0.0 0.0 0.00 0.00 0.00 77 1023.2
20260501221750 8 132 0.0 0.0 0.00 0.00 0.00 76 1023.2
20260501221251 8 148 0.0 0.0 0.00 0.00 0.00 76 1023.2
20260501220748 8 110 0.0 0.0 0.00 0.00 0.00 75 1023.2
20260501220248 9 112 0.0 0.0 0.00 0.00 0.00 75 1023.2
20260501215747 9 124 0.0 0.0 0.00 0.00 0.00 75 1023.1
20260501215247 9 132 0.0 0.0 0.00 0.00 0.00 74 1023.2
20260501214748 9 123 0.0 0.0 0.00 0.00 0.00 74 1023.1
20260501214248 9 111 0.0 0.0 0.00 0.00 0.00 74 1023.2
20260501213749 9 126 0.0 0.0 0.00 0.00 0.00 74 1023.2
20260501213247 9 130 0.0 0.0 0.00 0.00 0.00 73 1023.2
20260501212748 10 117 0.0 0.0 0.00 0.00 0.00 73 1023.2
20260501212248 10 115 0.0 0.0 0.00 0.00 0.00 72 1023.2
20260501211748 10 112 0.0 0.0 0.00 0.00 0.00 72 1023.2
20260501211248 10 125 0.0 0.0 0.00 0.00 0.00 71 1023.1
20260501211009 10 126 0.0 0.0 0.00 0.00 0.00 70 1023.2
20260501210245 10 129 0.0 0.0 0.00 0.00 0.00 70 1023.1
20260501205744 11 125 0.0 0.0 0.00 0.00 0.00 69 1023.1
20260501205244 11 124 0.0 0.0 0.00 0.00 0.00 68 1023.1
20260501204745 11 121 0.0 0.0 0.00 0.00 0.00 68 1023.1
20260501204244 11 120 0.0 0.0 0.00 0.00 0.00 67 1023.1
20260501204004 11 126 0.0 0.0 0.00 0.00 0.00 66 1023.1
20260501203239 12 130 0.0 0.0 0.00 0.00 0.00 64 1023.2
20260501202739 12 129 0.0 0.0 0.00 0.00 0.00 64 1023.2
20260501202503 12 126 0.0 0.0 0.00 0.00 0.00 64 1023.2
20260501201959 12 124 0.0 0.0 0.00 0.00 0.00 63 1023.1
20260501201239 12 124 0.0 0.0 0.00 0.00 0.00 62 1023.1
20260501200739 12 120 0.0 0.0 0.00 0.00 0.00 62 1023.0
20260501200732 13 121 0.0 0.0 0.00 0.00 0.00 60 1023.2
20260501195739 13 114 0.0 0.0 0.00 0.00 0.00 60 1023.1
20260501195240 13 122 0.0 0.0 0.00 0.00 0.00 59 1023.2
20260501194740 13 115 0.0 0.0 0.00 0.00 0.00 56 1023.1
20260501194239 14 106 0.0 0.0 0.00 0.00 0.00 56 1023.1
20260501193739 14 97 0.0 0.0 0.00 0.00 0.00 54 1023.2
20260501193240 15 96 0.0 0.0 0.00 0.00 0.00 53 1023.2
20260501192741 15 104 0.0 0.0 0.00 0.00 0.00 52 1023.0
20260501192241 15 105 0.0 0.0 0.00 0.00 0.00 52 1023.0
20260501191959 15 105 0.0 0.0 0.00 0.00 0.00 51 1023.1
20260501191240 16 105 0.0 0.0 0.00 0.00 0.00 50 1023.1
20260501191005 16 105 0.0 0.0 0.00 0.00 0.00 49 1023.0
20260501190238 16 105 0.0 0.0 0.00 0.00 0.00 48 1023.0